Regional Weather Roundup
Issued by NWS Midland/Odessa, TX

Skip options and go directly to product.
Home | Oldest Version | Previous Version | Current Version | All | Graphics & Text | Save Text | Print | Product List | Glossary On

Skip product version selection by date and time.   
270
ASUS44 KMAF 231710
RWRMAF
MIDLAND AREA WEATHER ROUNDUP
NATIONAL WEATHER SERVICE MIDLAND TX
1100 AM CST SUN NOV 23 2014

...IN SOUTHWEST TEXAS AND SOUTHEAST NEW MEXICO...

CITY           SKY/WX    TMP DP  RH WIND       PRES   REMARKS
ALPINE         MOSUNNY   62  29  28 W22G37    29.92S
ANDREWS        FAIR      65  21  18 NW21G31   29.71S
ARTESIA        NOT AVBL
BIG SPRING     SUNNY     64  31  29 W25       29.70R
CARLSBAD       SUNNY     66  22  18 W30G44    29.74R
DRYDEN           N/A     73  32  22 W25G35    29.74F
FORT STOCKTON  MOSUNNY   67  29  24 W30G43    29.78S
GUAD PASS      SUNNY     57  23  26 W44G58    29.83F
HOBBS          SUNNY     61  19  20 W17G25    29.74R
MARFA          SUNNY     59  27  29 W38G49    29.85F
MIDLAND AIRPK  SUNNY     66  28  23 W20G29    29.71R
MIDLAND INTL   SUNNY     66  25  21 W23G33    29.71R
ODESSA         SUNNY     65  21  18 W24G35    29.72S
PECOS          SUNNY     66  26  21 W38G51    29.77R
PRESIDIO       FAIR      64  35  34 SW6       29.91S
SEMINOLE       SUNNY     65  24  21 NW28G33   29.73R
SNYDER         SUNNY     66  31  27 W28G37    29.60S
WINK           SUNNY     68  21  16 W26G36    29.73R
$$
...OTHER STATIONS IN TEXAS...

CITY           SKY/WX    TMP DP  RH WIND       PRES   REMARKS
ABILENE        SUNNY     69  33  26 W24G35    29.54F
AMARILLO       MOSUNNY   54  31  41 N28G38    29.63S
AUSTIN         SUNNY     73  51  46 SW15      29.64F
BROWNSVILLE    SUNNY     75  69  81 SW8       29.79F
CORPUS CHRISTI SUNNY     71  60  68 SW9       29.73F
DALLAS FTW     MOSUNNY   64  52  64 SW18      29.48F
DEL RIO        SUNNY     65  53  65 CALM      29.72F
EL PASO        PTSUNNY   60  24  25 W32G43    29.91F
HOUSTON INT    SUNNY     70  57  63 SW9G20    29.65F
LUBBOCK        MOSUNNY   64  22  20 W36G49    29.59R
SAN ANGELO     SUNNY     70  32  24 W28G37    29.65F
SAN ANTONIO    SUNNY     72  50  45 SW12      29.69F
WACO           SUNNY     69  50  50 SW17      29.56F
WICHITA FALLS  NOT AVBL
$$
...OTHER LOCATIONS IN NEW MEXICO...

CITY           SKY/WX    TMP DP  RH WIND       PRES   REMARKS
ALAMAGORDO     MOSUNNY   57  19  23 W7        29.89F
ALBUQUERQUE    PTSUNNY   43  24  47 NW23G29   29.90S WCI  34
CANNON AFB     SUNNY     57  22  26 W25G40    29.67R
CLOVIS         PTSUNNY   61  25  25 NW28G37   29.68R
HOLLOMAN AFB   MOSUNNY   60  23  24 W14       29.87F
ROSWELL        SUNNY     64  24  21 W35G49    29.69F
RUIDOSO        MOSUNNY   45  19  36 W23G37    29.86S WCI  36
SANTA FE       CLOUDY    41  17  38 W18G30    29.80R WCI  32
TRUTH OR CONSE SUNNY     56  23  27 W22G33    29.90S
TUCUMCARI        N/A     52  26  36 NE20G26   29.70R
$$

USA.gov is the U.S. government's official web portal to all federal, state and local government web resources and services.